Location: �quirre
(50.4736°N, 2.2351°E)
Time: 21:28:41
(UTC+00:00)

Cosmos 1975 - Pass Details

Date: 07 August 2020
Orbit: 542 x 561 km, 82.5° (Epoch: 22 September)

Event Time Altitude Azimuth Distance (km) Brightness Sun altitude
Exits shadow 00:44:43 54° 276° (W) 670 3.1 -22.4°
Maximum altitude 00:44:50 55° 283° (WNW) 668 3.1 -22.4°
Drops below altitude 10° 00:48:49 10° 2° (N) 1,840 6.6 -22.2°
Sets 00:51:02 0° 7° (N) 2,743 7.9 -22.1°
